#timestamp,LO_Frequency,Hit,StdDev 
1652526015.8,286046994.3,N
1652526035.6,286046994.3,N
1652526055.4,286046990.1,Y
1652526075.3,286046989.4,P
1652526095.1,286046987.6,N
1652526096.0,286046987.6,N
1652526115.8,286046989.6,N
1652526135.7,286046987.7,N
1652526155.5,286046987.1,Y
1652526175.3,286046995.1,P
1652526195.2,286046996.1,N
1652526215.9,286046994.6,N
1652526235.7,286046998.9,N
1652526255.6,286046999.1,N
1652526275.4,286046997.4,N
1652526295.2,286046996.0,N
1652526315.1,286046999.4,N
1652526316.0,286046999.4,N
1652526335.8,286046998.3,N
1652526355.6,286047002.1,N
1652526375.5,286047003.7,N
1652526395.3,286047006.8,N
1652526415.1,286047008.7,N
1652526435.9,286047008.3,N
1652526455.7,286047007.7,N
1652526475.5,286047010.7,N
1652526495.4,286047008.5,N
1652526515.2,286047007.8,N
1652526535.0,286047010.6,N
1652526535.9,286047010.6,N
1652526555.8,286047009.3,N
1652526575.6,286047009.8,N
1652526595.4,286047010.1,N
1652526615.3,286047009.5,N
1652526635.1,286047010.2,N
1652526655.8,286047010.3,N
1652526675.7,286047010.2,N
1652526695.5,286047009.2,N
1652526715.3,286047006.9,N
1652526735.2,286047004.2,N
1652526755.0,286047001.4,N
1652526755.9,286047001.4,N
1652526775.7,286047004.1,N
1652526795.6,286047005.4,N
1652526815.4,286047008.5,N
1652526835.2,286047010.5,N
1652526855.1,286047008.9,N
1652526856.0,286047008.9,N
1652526875.8,286047009.3,N
1652526895.6,286047009.6,Y
1652526915.5,286046999.8,P
1652526935.3,286047000.5,N
1652526955.1,286047000.3,N
1652526975.9,286047000.2,N
1652526995.7,286047002.1,N
1652527015.5,286047001.8,N
1652527035.4,286047001.5,N
1652527055.2,286047005.7,N
1652527075.0,286047003.0,N
1652527075.9,286047003.0,N
1652527095.8,286047002.9,N
1652527115.6,286047005.4,N
1652527135.4,286047003.0,N
1652527155.3,286047001.3,N
1652527175.1,286047002.5,N
1652527195.8,286047000.5,N
1652527215.7,286047001.1,N
1652527235.5,286047002.6,N
1652527255.3,286047002.7,N
1652527275.2,286047000.3,N
1652527295.0,286047000.4,N
1652527295.9,286047000.4,N
1652527315.7,286047000.8,N
1652527335.6,286047000.6,N
1652527355.4,286047000.5,N
1652527375.2,286046998.5,N
1652527395.1,286046998.7,N
1652527396.0,286046998.7,N
1652527415.8,286047002.8,N
1652527435.6,286047000.6,N
1652527455.5,286046999.7,N
1652527475.3,286047004.3,N
1652527495.1,286047002.3,N
1652527515.9,286047004.3,N
1652527535.7,286047004.1,N
1652527555.5,286047004.0,N
1652527575.4,286047004.4,N
1652527595.2,286047003.0,N
1652527615.0,286047005.2,N
1652527615.9,286047005.2,N
1652527635.8,286047003.9,N
1652527655.6,286047002.4,N
1652527675.4,286047002.7,N
1652527695.3,286047002.3,N
1652527715.1,286047001.3,N
1652527735.8,286047002.0,N
1652527755.7,286047001.6,N
1652527775.5,286047002.1,N
1652527795.3,286047002.1,N
1652527815.2,286047001.0,N
1652527835.0,286047000.9,N
1652527835.9,286047000.9,N
1652527855.7,286046998.7,N
1652527875.6,286047000.0,N
1652527895.4,286047002.7,N
1652527915.2,286047001.1,N
1652527935.1,286046999.4,N
1652527936.0,286046999.4,N
1652527955.8,286046996.2,N
1652527975.6,286046993.3,Y
1652527995.5,286046991.5,P
1652528015.3,286046986.1,N
1652528035.1,286046985.8,N
1652528055.9,286046988.0,N
1652528075.7,286046990.0,N
1652528095.5,286046991.3,N
1652528115.4,286046994.5,N
1652528135.2,286046992.1,N
1652528155.0,286046993.2,N
1652528155.9,286046993.2,N
1652528175.8,286046993.5,N
1652528195.6,286046992.8,N
1652528215.4,286046994.5,N
1652528235.3,286046994.1,N
1652528255.1,286046995.3,N
1652528275.8,286046995.7,N
1652528295.7,286046993.9,N
1652528315.5,286046996.1,N
1652528335.3,286046995.9,N
1652528355.2,286046993.9,N
1652528375.0,286046993.4,N
1652528375.9,286046993.4,N
1652528395.7,286046995.9,N
1652528415.6,286046994.5,N
1652528435.4,286046996.4,N
1652528455.2,286046993.4,N
1652528475.1,286046991.8,N
1652528476.0,286046991.8,N
1652528495.8,286046993.9,N
1652528515.6,286046991.8,N
1652528535.5,286046993.9,N
1652528555.3,286046994.7,N
1652528575.1,286046993.6,N
1652528595.9,286046994.7,N
1652528615.7,286046994.1,Y
1652528635.5,286046999.9,P
1652528655.4,286047000.9,N
1652528675.2,286046998.4,N
1652528695.0,286046999.6,N
1652528695.9,286046999.6,N
1652528715.8,286046998.4,N
1652528735.6,286046995.3,N
1652528755.4,286046994.0,N
1652528775.3,286046994.5,N
1652528795.1,286046991.8,Y
1652528815.8,286046994.9,P
1652528835.7,286046997.2,N
1652528855.5,286046995.5,P
1652528875.3,286046995.4,Y
1652528895.2,286047000.5,P
1652528915.0,286047002.8,N
1652528915.9,286047002.8,N
1652528935.7,286047001.6,N
1652528955.6,286047004.2,N
1652528975.4,286047003.7,N
1652528995.2,286047003.6,N
1652529015.1,286047003.6,N
1652529016.0,286047003.6,N
1652529035.8,286047003.8,N
1652529055.6,286047002.5,N
1652529075.5,286047001.3,N
1652529095.3,286047001.4,N
1652529115.1,286047002.2,N
1652529135.9,286047002.5,N
1652529155.7,286047002.1,N
1652529175.5,286047003.9,N
1652529195.4,286047003.9,N
1652529215.2,286047003.6,N
1652529235.0,286047005.8,Y
1652529236.0,286047005.8,P
1652529255.8,286047001.0,N
1652529275.6,286047000.9,N
1652529295.4,286046999.1,N
1652529315.3,286046995.2,N
1652529335.1,286046995.0,N
1652529355.8,286046997.5,N
1652529375.7,286046997.0,N
1652529395.5,286046995.0,N
1652529415.3,286046998.9,N
1652529435.2,286046998.7,N
1652529455.0,286046999.5,N
1652529455.9,286046999.5,N
1652529475.8,286046996.9,N
1652529495.6,286046997.0,N
1652529515.4,286046997.9,N
1652529535.2,286046996.6,N
1652529555.1,286046994.9,N
1652529556.0,286046994.9,N
1652529575.8,286046995.6,N
1652529595.7,286046995.5,N
